Flag for Monaco Weather past 2 weeks in Monaco, Monaco

Now
52 °F

Sunny.


Feels Like: 49 °F
Forecast: 50 / 63 °F
Wind: 7 mph from North

Location: Nice Airport


UV Index: 3 (Moderate)

Visibility: 10 mi


Pressure: 30.09 "Hg

Humidity: 58%

Dew point: 37 °F

Location of MonacoLocation

Historic Weather in Monaco

°F

Monaco temperature yesterday

Maximum temperature yesterday: 61 °F (at 9:00 AM)
Minimum temperature yesterday: 54 °F (at 3:00 AM)
Average temperature yesterday: 57 °F

Past Weeks' High & Low Weather Summary

 TemperatureHumidityPressure
High68 °F (Apr 5, 11:30 AM)94% (Apr 2, 7:00 AM)30.15 "Hg (Apr 2, 7:00 AM)
Low50 °F (Apr 17, 3:00 AM)35% (Apr 4, 2:30 AM)29.50 "Hg (Apr 4, 6:30 AM)
Average60 °F69%29.96 "Hg
* Reported Apr 2 7:00 AM — Apr 17 7:30 AM, Monaco, Weather by CustomWeather, © 2014

Note: Actual official high and low records may vary slightly from our data, if they occured in-between our weather recording intervals... More about our weather records

Advertising

Historic Weather Conditions — Data for Previous 24 hours

 ConditionsComfort  
Time TempWeatherWind HumidityBarometerVisibility
7:30 AM
Apr 17
50 °FClear.8 mph62%30.09 "Hg10 mi
7:00 AM50 °FClear.8 mph62%30.09 "Hg10 mi
6:30 AM50 °FClear.7 mph62%30.09 "Hg10 mi
6:00 AM50 °FClear.7 mph62%30.09 "Hg10 mi
5:30 AM50 °FClear.7 mph62%30.09 "Hg10 mi
5:00 AM50 °FClear.8 mph62%30.12 "Hg10 mi
4:30 AM50 °FClear.7 mph62%30.12 "Hg10 mi
4:00 AM50 °FClear.9 mph67%30.12 "Hg10 mi
3:30 AM50 °FClear.10 mph67%30.12 "Hg10 mi
3:00 AM50 °FClear.12 mph67%30.15 "Hg10 mi
2:30 AM52 °FClear.12 mph62%30.15 "Hg10 mi
2:00 AM52 °FClear.12 mph62%30.15 "Hg10 mi
1:30 AM52 °FClear.9 mph62%30.15 "Hg10 mi
1:00 AM52 °FClear.7 mph62%30.15 "Hg10 mi
12:30 AM52 °FPassing clouds.12 mph58%30.15 "HgN/A
12:00 AM52 °FPassing clouds.10 mph62%30.15 "HgN/A
11:30 PM
Apr 16
54 °FPassing clouds.12 mph58%30.15 "HgN/A
11:00 PM54 °FPassing clouds.7 mph58%30.15 "HgN/A
10:30 PM54 °FPassing clouds.6 mph58%30.15 "HgN/A
10:00 PM55 °FPassing clouds.5 mph59%30.15 "HgN/A
9:30 PM57 °FPassing clouds.6 mph51%30.15 "HgN/A
9:00 PM57 °FPartly sunny.3 mph51%30.15 "HgN/A
8:30 PM57 °FPartly sunny.5 mph48%30.15 "HgN/A
8:00 PM57 °FPartly sunny.3 mph44%30.15 "HgN/A
7:30 PM57 °FPartly sunny.3 mph44%30.15 "HgN/A
7:00 PM57 °FPartly sunny.3 mph44%30.15 "HgN/A
6:30 PM57 °FPartly sunny.5 mph44%30.15 "HgN/A
6:00 PM57 °FPartly sunny.2 mph41%30.15 "HgN/A
5:30 PM59 °FPartly sunny.3 mph39%30.15 "HgN/A
5:00 PM59 °FPartly sunny.1 mph39%30.15 "HgN/A
4:30 PM59 °FPartly sunny.No wind42%30.15 "HgN/A
4:00 PM59 °FPartly sunny.6 mph42%30.15 "HgN/A
3:30 PM59 °FPartly sunny.8 mph42%30.15 "HgN/A
3:00 PM59 °FPartly sunny.12 mph45%30.15 "HgN/A
2:30 PM59 °FPartly sunny.14 mph45%30.15 "HgN/A
2:00 PM59 °FPartly sunny.16 mph48%30.15 "HgN/A
1:30 PM59 °FPartly sunny.17 mph51%30.15 "HgN/A
1:00 PM59 °FPartly sunny.17 mph51%30.12 "HgN/A
12:40 PM59 °FPartly sunny.17 mph55%30.12 "HgN/A
12:00 PM57 °FBroken clouds.25 mph63%30.12 "HgN/A
11:30 AM57 °FScattered clouds.29 mph59%30.12 "HgN/A
11:00 AM59 °FPassing clouds.26 mph59%30.09 "HgN/A
10:30 AM61 °FPassing clouds.25 mph59%30.09 "HgN/A
10:00 AM61 °FPartly sunny.28 mph55%30.07 "HgN/A
9:30 AM61 °FPartly sunny.26 mph59%30.07 "HgN/A
9:00 AM61 °FPartly sunny.21 mph59%30.07 "HgN/A
8:30 AM59 °FPartly sunny.18 mph68%30.07 "HgN/A
8:00 AM59 °FPartly sunny.13 mph72%30.04 "HgN/A
Weather by CustomWeather, © 2014

See weather overview